Flag for Germany Weather past 2 weeks in Tübingen, Baden-Württemberg, Germany

Now
45 °F

Passing clouds.


Feels Like: 42 °F
Forecast: 39 / 51 °F
Wind: 5 mph from Southwest

Location: Stuttgart-Echterdingen

Current Time: Oct 22, 2014 at 3:10:31 AM

Latest Report: Oct 22, 2014 at 2:20 AM


Visibility: N/A

Pressure: 29.98 "Hg

Humidity: 87%

Dew point: 41 °F

Location of TübingenLocation

Historic Weather in Tübingen — Graph

°F

Tübingen temperature yesterday

Maximum temperature yesterday: 64 °F (at 2:50 PM)
Minimum temperature yesterday: 46 °F (at 11:20 PM)
Average temperature yesterday: 56 °F

Past Weeks' High & Low Weather Summary

 TemperatureHumidityPressure
High79 °F (Oct 9, 2:20 PM)100% (Oct 7, 1:20 AM)30.21 "Hg (Oct 7, 1:20 AM)
Low43 °F (Oct 18, 7:50 AM)32% (Oct 9, 3:50 PM)29.65 "Hg (Oct 21, 6:20 PM)
Average59 °F85%29.94 "Hg
* Reported Oct 7 1:20 AM — Oct 22 1:50 AM, Tübingen, Weather by CustomWeather, © 2014

Note: Actual official high and low records may vary slightly from our data, if they occured in-between our weather recording intervals... More about our weather records

Advertising

Tübingen weather history for previous 24 hours

 ConditionsComfort  
Time TempWeatherWind HumidityBarometerVisibility
1:50 AM
Oct 22
45 °FPartly cloudy.8 mph81%29.98 "HgN/A
1:20 AM45 °FSprinkles. Partly cloudy.8 mph87%29.98 "HgN/A
12:50 AM45 °FRain showers. Partly cloudy.17 mph87%29.98 "HgN/A
12:20 AM46 °FSprinkles. Partly cloudy.14 mph82%29.98 "HgN/A
11:50 PM
Oct 21
46 °FClear.8 mph76%29.95 "Hg10 mi
11:20 PM46 °FPassing clouds.17 mph76%29.92 "HgN/A
10:50 PM48 °FPassing clouds.22 mph76%29.89 "HgN/A
10:20 PM48 °FPassing clouds.20 mph76%29.86 "HgN/A
9:50 PM48 °FSprinkles. Partly cloudy.24 mph76%29.83 "HgN/A
9:20 PM48 °FSprinkles. Partly cloudy.15 mph82%29.80 "HgN/A
8:50 PM50 °FPassing clouds.15 mph76%29.80 "HgN/A
8:20 PM50 °FPassing clouds.26 mph76%29.77 "HgN/A
7:50 PM50 °FStrong thunderstorms. Passing clouds.32 mph76%29.71 "HgN/A
7:20 PM57 °FSprinkles. Partly sunny.10 mph82%29.68 "HgN/A
6:50 PM59 °FSprinkles. Broken clouds.13 mph77%29.65 "HgN/A
6:20 PM61 °FScattered showers. Scattered clouds.14 mph68%29.65 "HgN/A
5:50 PM61 °FScattered clouds.12 mph68%29.68 "HgN/A
5:20 PM61 °FScattered clouds.10 mph63%29.71 "HgN/A
4:50 PM61 °FPartly sunny.9 mph63%29.74 "HgN/A
4:20 PM61 °FBroken clouds.10 mph68%29.77 "HgN/A
3:50 PM61 °FBroken clouds.13 mph72%29.77 "HgN/A
3:20 PM63 °FBroken clouds.10 mph64%29.80 "HgN/A
2:50 PM64 °FBroken clouds.12 mph64%29.80 "HgN/A
2:20 PM63 °FBroken clouds.13 mph59%29.80 "HgN/A
1:50 PM63 °FBroken clouds.9 mph64%29.83 "HgN/A
1:20 PM63 °FBroken clouds.13 mph64%29.86 "HgN/A
12:50 PM61 °FBroken clouds.14 mph63%29.89 "HgN/A
12:20 PM63 °FScattered clouds.17 mph68%29.92 "HgN/A
11:50 AM61 °FPassing clouds.10 mph72%29.92 "HgN/A
11:20 AM61 °FScattered clouds.10 mph72%29.92 "HgN/A
10:50 AM59 °FScattered clouds.13 mph82%29.92 "HgN/A
10:20 AM57 °FPassing clouds.6 mph88%29.95 "HgN/A
9:50 AM55 °FPassing clouds.2 mph94%29.95 "HgN/A
9:20 AM54 °FPartly sunny.No wind88%29.95 "HgN/A
8:50 AM52 °FPassing clouds.1 mph94%29.95 "HgN/A
8:20 AM52 °FPartly cloudy.1 mph94%29.95 "HgN/A
7:50 AM52 °FPassing clouds.No wind94%29.95 "HgN/A
7:20 AM52 °FPassing clouds.2 mph94%29.95 "HgN/A
6:50 AM52 °FPassing clouds.2 mph94%29.95 "HgN/A
6:20 AM52 °FPassing clouds.2 mph88%29.95 "HgN/A
5:50 AM54 °FPassing clouds.1 mph88%29.98 "HgN/A
5:20 AM52 °FPassing clouds.1 mph94%29.98 "HgN/A
4:50 AM52 °FPassing clouds.2 mph94%29.98 "HgN/A
4:20 AM54 °FPassing clouds.3 mph88%29.98 "HgN/A
3:50 AM54 °FPassing clouds.2 mph88%30.01 "HgN/A
3:20 AM54 °FPassing clouds.1 mph88%30.01 "HgN/A
Weather by CustomWeather, © 2014

See weather overviewHow to use our weather pages